Regional Weather Roundup
Issued by NWS

Home | Current Version | Previous Version | Graphics & Text | Print | Product List | Glossary On
Versions: 1 2 3 4 5 6 7 8 9 10 11 12 13 14 15 16 17 18 19 20 21 22 23 24 25 26 27 28 29 30 31 32 33 34 35 36 37 38 39 40 41 42 43 44 45 46 47 48 49 50
000
ASUS43 KIND 241209
RWRIN

WEATHER ROUNDUP FOR INDIANA
NATIONAL WEATHER SERVICE INDIANAPOLIS IN
800 AM EDT SUN MAY 24 2015

NOTE: "FAIR" INDICATES FEW OR NO CLOUDS BELOW 12,000 FEET WITH NO
SIGNIFICANT WEATHER AND/OR OBSTRUCTIONS TO VISIBILITY.

* - STATION DOES NOT REPORT WEATHER SUCH AS PRECIPITATION OR FOG.

+ - STATION NOT QUALITY CONTROLLED BY THE NATIONAL WEATHER SERVICE.
    USE DATA WITH CAUTION...ESPECIALLY DEWPOINT AND RELATIVE
    HUMIDITY OBSERVATIONS.

INZ001>003-010>013-019-020-241300-
NORTHWEST INDIANA

CITY           SKY/WX    TMP DP  RH WIND       PRES   REMARKS
GARY /AIRPORT/ PTSUNNY   64  48  55 SE7       30.20S
KNOX *+        PTSUNNY   61  46  59 SE5       30.21F
LA PORTE +     CLOUDY    62  51  69 E3        30.23S
6HR MIN TEMP:  54; 6HR MAX TEMP:  62;

MICHIGAN CITY+ CLOUDY    63  45  51 SE5       30.21F
MONTICELLO +   CLOUDY    61  50  66 CALM      30.21S
6HR MIN TEMP:  58; 6HR MAX TEMP:  62;

RENSSELAER +   PTSUNNY   63  52  67 E3        30.21S
VALPARAISO     PTSUNNY   60  51  72 E5        30.21F
6HR MIN TEMP:  54; 6HR MAX TEMP:  63;


$$

LMZ046-743>745-241300-
SOUTHERN LAKE MICHIGAN

STATION/POSITION TIME  TEMP    WIND        PRES    WAVE
                       AIR SEA DIR/SP/G            HT
                 (UTC) (F)     (DEG/KT/KT) (MB)    (FT)
BURNS HARBOR     1200   65     150/  8/ 11 1023.0F
MICHIGAN CITY    1200   64     120/  9/ 11   N/A
5NW MICH CITY    1200   59 54  150/  6/  8   N/A     0

$$

INZ004-005-014>016-021>024-241300-
NORTH CENTRAL INDIANA

CITY           SKY/WX    TMP DP  RH WIND       PRES   REMARKS
GOSHEN         PTSUNNY   61  50  67 SE5       30.24F
6HR MIN TEMP:  51; 6HR MAX TEMP:  61;

LOGANSPORT +   PTSUNNY   61  48  63 E3        30.24R
PERU/GRISSOM   CLOUDY    61  51  69 SE7       30.22S
6HR MIN TEMP:  56; 6HR MAX TEMP:  61;

ROCHESTER +    PTSUNNY   64  50  59 SE5       30.25R
SOUTH BEND     PTSUNNY   61  50  67 CALM      30.24S
6HR MIN TEMP:  54; 6HR MAX TEMP:  61;

WARSAW +       MOSUNNY   61  48  63 SE3       30.25S

$$

INZ006>009-017-018-025>027-241300-
NORTHEAST INDIANA

CITY           SKY/WX    TMP DP  RH WIND       PRES   REMARKS
ANGOLA *+      SUNNY     55  54  94 CALM      30.26F
AUBURN +       CLOUDY    55  52  88 CALM      30.27F
FORT WAYNE     PTSUNNY   60  50  69 SE3       30.27S
6HR MIN TEMP:  53; 6HR MAX TEMP:  60;

HUNTINGTON +   PTSUNNY   60  50  69 SE5       30.25S
6HR MIN TEMP:  52; 6HR MAX TEMP:  60;


$$

INZ028-029-035-036-043>045-051>053-241300-
WEST CENTRAL INDIANA

CITY           SKY/WX    TMP DP  RH WIND       PRES   REMARKS
CRAWFORDSVL +  CLOUDY    62  45  53 SE6       30.21S
6HR MIN TEMP:  57; 6HR MAX TEMP:  62;

GREENCASTLE +  CLOUDY    63  46  55 SE8       30.23S
LAFAYETTE      CLOUDY    61  53  75 E3        30.21S
6HR MIN TEMP:  54; 6HR MAX TEMP:  61; 6HR PCP: TRACE;

TERRE HAUTE    PTSUNNY   64  52  64 SE7       30.20R
6HR MIN TEMP:  61; 6HR MAX TEMP:  64;


$$

INZ030>032-037>040-046>048-054>057-064-065-241300-
CENTRAL INDIANA

CITY           SKY/WX    TMP DP  RH WIND       PRES   REMARKS
CP ATTERBURY + CLOUDY    59  54  82 CALM      30.26R
FRANKFORT +    CLOUDY    64  51  63 E8        30.24R
6HR MIN TEMP:  57; 6HR MAX TEMP:  64;

GREENWOOD *+   CLOUDY    63  48  59 SE9       30.25R
INDIANAPOLIS   CLOUDY    63  50  62 SE8       30.22R
6HR MIN TEMP:  59; 6HR MAX TEMP:  63;

-EAGLE CREEK   CLOUDY    63  50  62 SE5       30.23R
6HR MIN TEMP:  56; 6HR MAX TEMP:  63;

KOKOMO *+      PTSUNNY   63  52  67 SE7       30.24S
6HR MIN TEMP:  55; 6HR MAX TEMP:  63;

MARION +       CLOUDY    61  48  62 SE7       30.25S
MT COMFORT *+  CLOUDY    63  41  45 SE7       30.25R
SHELBYVILLE    CLOUDY    66  51  58 SE8       30.25R
6HR MIN TEMP:  63; 6HR MAX TEMP:  68;

ZIONSVILLE +   CLOUDY    64  48  56 SE7       30.25R
6HR MIN TEMP:  56; 6HR MAX TEMP:  64;


$$

INZ033-034-041-042-049-050-058-059-241300-
EAST CENTRAL INDIANA

CITY           SKY/WX    TMP DP  RH WIND       PRES   REMARKS
MUNCIE         PTSUNNY   67  48  50 S9        30.25S
6HR MIN TEMP:  61; 6HR MAX TEMP:  67;


$$

INZ060-061-067>069-081>083-085>088-241300-
SOUTHWEST INDIANA

CITY           SKY/WX    TMP DP  RH WIND       PRES   REMARKS
EVANSVILLE     CLOUDY    65  55  70 CALM      30.21S
6HR MIN TEMP:  59; 6HR MAX TEMP:  65;

HUNTINGBURG *+ PTSUNNY   64  52  63 SE7       30.23S
6HR MIN TEMP:  63; 6HR MAX TEMP:  64;

WASHINGTON +   PTSUNNY   64  51  62 S7        30.21S
6HR MIN TEMP:  58; 6HR MAX TEMP:  64;


$$

INZ062-063-066-070>080-084-089>092-241300-
SOUTH CENTRAL AND SOUTHEAST INDIANA

CITY           SKY/WX    TMP DP  RH WIND       PRES   REMARKS
BLOOMINGTON    PTSUNNY   63  52  67 SE5       30.23R
6HR MIN TEMP:  56; 6HR MAX TEMP:  63;

MADISON *+     PTSUNNY   63  50  63 SE6       30.29R
NORTH VERNON + CLOUDY    64  52  63 S3        30.28R
SEYMOUR +      PTSUNNY   64  52  63 SE6       30.26R

$$




USA.gov is the U.S. government's official web portal to all federal, state and local government web resources and services.